#timestamp,LO_Frequency,Hit,Temp,Hum 
1479362415.8,286046893.8,N,0.0,0.0
1479362435.7,286046892.9,N,0.0,0.0
1479362455.5,286046893.8,N,0.0,0.0
1479362475.3,286046893.5,N,0.0,0.0
1479362495.2,286046893.5,N,0.0,0.0
1479362515.0,286046893.3,N,0.0,0.0
1479362515.9,286046893.3,N,0.0,0.0
1479362535.8,286046892.8,N,0.0,0.0
1479362555.6,286046892.8,N,0.0,0.0
1479362575.4,286046893.5,N,0.0,0.0
1479362595.3,286046893.2,N,0.0,0.0
1479362615.1,286046893.4,N,0.0,0.0
1479362635.8,286046893.7,N,0.0,0.0
1479362655.7,286046893.2,N,0.0,0.0
1479362675.5,286046894.0,N,0.0,0.0
1479362695.4,286046891.1,N,0.0,0.0
1479362715.2,286046891.6,N,0.0,0.0
1479362735.0,286046891.5,N,0.0,0.0
1479362735.9,286046891.5,N,0.0,0.0
1479362755.8,286046893.6,N,0.0,0.0
1479362775.6,286046893.4,N,0.0,0.0
1479362795.5,286046891.0,N,0.0,0.0
1479362815.3,286046891.4,N,0.0,0.0
1479362835.1,286046893.9,N,0.0,0.0
1479362855.9,286046891.5,N,0.0,0.0
1479362875.7,286046891.6,N,0.0,0.0
1479362895.5,286046892.1,N,0.0,0.0
1479362915.4,286046891.7,N,0.0,0.0
1479362935.2,286046889.3,N,0.0,0.0
1479362955.1,286046889.9,N,0.0,0.0
1479362956.0,286046889.9,N,0.0,0.0
1479362975.8,286046890.0,N,0.0,0.0
1479362995.6,286046892.4,N,0.0,0.0
1479363015.5,286046890.6,N,0.0,0.0
1479363035.3,286046890.8,N,0.0,0.0
1479363055.1,286046887.9,N,0.0,0.0
1479363075.9,286046890.1,N,0.0,0.0
1479363095.7,286046890.8,N,0.0,0.0
1479363115.6,286046888.3,N,0.0,0.0
1479363135.4,286046888.8,N,0.0,0.0
1479363155.2,286046888.8,N,0.0,0.0
1479363175.1,286046887.2,N,0.0,0.0
1479363176.0,286046887.2,N,0.0,0.0
1479363195.8,286046887.3,N,0.0,0.0
1479363215.7,286046886.3,N,0.0,0.0
1479363235.5,286046886.5,N,0.0,0.0
1479363255.3,286046887.6,N,0.0,0.0
1479363275.2,286046886.4,N,0.0,0.0
1479363295.9,286046887.4,N,0.0,0.0
1479363315.7,286046886.8,N,0.0,0.0
1479363335.6,286046889.2,N,0.0,0.0
1479363355.4,286046886.1,N,0.0,0.0
1479363375.3,286046887.0,N,0.0,0.0
1479363395.1,286046886.7,N,0.0,0.0
1479363396.0,286046886.7,N,0.0,0.0
1479363415.8,286046884.9,N,0.0,0.0
1479363435.7,286046885.0,N,0.0,0.0
1479363455.5,286046884.5,N,0.0,0.0
1479363475.3,286046886.6,N,0.0,0.0
1479363495.2,286046884.8,N,0.0,0.0
1479363515.0,286046885.0,N,0.0,0.0
1479363515.9,286046885.0,N,0.0,0.0
1479363535.8,286046885.7,N,0.0,0.0
1479363555.6,286046884.8,N,0.0,0.0
1479363575.4,286046885.5,N,0.0,0.0
1479363595.3,286046885.1,N,0.0,0.0
1479363615.1,286046884.7,N,0.0,0.0
1479363635.8,286046885.0,N,0.0,0.0
1479363655.7,286046885.2,N,0.0,0.0
1479363675.5,286046885.3,N,0.0,0.0
1479363695.4,286046885.0,N,0.0,0.0
1479363715.2,286046887.2,N,0.0,0.0
1479363735.0,286046884.8,N,0.0,0.0
1479363735.9,286046884.8,N,0.0,0.0
1479363755.8,286046885.2,N,0.0,0.0
1479363775.6,286046885.1,N,0.0,0.0
1479363795.5,286046887.2,N,0.0,0.0
1479363815.3,286046884.7,N,0.0,0.0
1479363835.1,286046884.9,N,0.0,0.0
1479363855.9,286046887.1,N,0.0,0.0
1479363875.7,286046889.0,N,0.0,0.0
1479363895.5,286046888.2,N,0.0,0.0
1479363915.4,286046890.7,N,0.0,0.0
1479363935.2,286046889.7,N,0.0,0.0
1479363955.1,286046891.9,N,0.0,0.0
1479363956.0,286046891.9,N,0.0,0.0
1479363975.8,286046889.5,N,0.0,0.0
1479363995.6,286046891.1,N,0.0,0.0
1479364015.5,286046891.1,N,0.0,0.0
1479364035.3,286046893.3,N,0.0,0.0
1479364055.1,286046893.2,N,0.0,0.0
1479364075.9,286046893.4,N,0.0,0.0
1479364095.7,286046891.0,N,0.0,0.0
1479364115.6,286046893.3,N,0.0,0.0
1479364135.4,286046892.8,N,0.0,0.0
1479364155.2,286046895.6,N,0.0,0.0
1479364175.1,286046892.5,N,0.0,0.0
1479364176.0,286046892.5,N,0.0,0.0
1479364195.8,286046895.3,N,0.0,0.0
1479364215.6,286046894.9,N,0.0,0.0
1479364235.5,286046897.1,N,0.0,0.0
1479364255.3,286046894.1,N,0.0,0.0
1479364275.2,286046896.5,N,0.0,0.0
1479364295.9,286046896.9,N,0.0,0.0
1479364315.7,286046896.3,N,0.0,0.0
1479364335.6,286046896.1,N,0.0,0.0
1479364355.4,286046897.3,N,0.0,0.0
1479364375.3,286046895.8,N,0.0,0.0
1479364395.1,286046896.1,N,0.0,0.0
1479364396.0,286046896.1,N,0.0,0.0
1479364415.8,286046898.3,N,0.0,0.0
1479364435.7,286046897.5,N,0.0,0.0
1479364455.5,286046895.8,N,0.0,0.0
1479364475.3,286046896.1,N,0.0,0.0
1479364495.2,286046897.8,N,0.0,0.0
1479364515.0,286046898.9,N,0.0,0.0
1479364515.9,286046898.9,N,0.0,0.0
1479364535.8,286046898.9,N,0.0,0.0
1479364555.6,286046901.0,N,0.0,0.0
1479364575.4,286046901.8,N,0.0,0.0
1479364595.3,286046901.7,N,0.0,0.0
1479364615.1,286046899.6,N,0.0,0.0
1479364635.8,286046899.1,N,0.0,0.0
1479364655.7,286046899.7,N,0.0,0.0
1479364675.5,286046899.2,N,0.0,0.0
1479364695.4,286046900.2,N,0.0,0.0
1479364715.2,286046899.8,N,0.0,0.0
1479364735.0,286046899.4,N,0.0,0.0
1479364735.9,286046899.4,N,0.0,0.0
1479364755.8,286046903.5,N,0.0,0.0
1479364775.6,286046902.2,N,0.0,0.0
1479364795.5,286046902.6,N,0.0,0.0
1479364815.3,286046902.6,N,0.0,0.0
1479364835.1,286046905.0,N,0.0,0.0
1479364855.9,286046904.8,N,0.0,0.0
1479364875.7,286046904.2,N,0.0,0.0
1479364895.5,286046906.6,N,0.0,0.0
1479364915.4,286046908.3,N,0.0,0.0
1479364935.2,286046907.9,N,0.0,0.0
1479364955.1,286046905.4,N,0.0,0.0
1479364956.0,286046905.4,N,0.0,0.0
1479364975.8,286046907.6,N,0.0,0.0
1479364995.6,286046909.3,N,0.0,0.0
1479365015.5,286046909.9,N,0.0,0.0
1479365035.3,286046909.9,N,0.0,0.0
1479365055.2,286046909.1,N,0.0,0.0
1479365075.9,286046911.6,N,0.0,0.0
1479365095.7,286046908.9,N,0.0,0.0
1479365115.6,286046911.6,N,0.0,0.0
1479365135.4,286046911.2,N,0.0,0.0
1479365155.2,286046910.3,N,0.0,0.0
1479365175.1,286046910.9,N,0.0,0.0
1479365176.0,286046910.9,N,0.0,0.0
1479365195.8,286046913.1,N,0.0,0.0
1479365215.7,286046913.0,N,0.0,0.0
1479365235.5,286046912.0,N,0.0,0.0
1479365255.3,286046913.0,N,0.0,0.0
1479365275.2,286046912.4,N,0.0,0.0
1479365295.0,286046914.8,N,0.0,0.0
1479365295.9,286046914.8,N,0.0,0.0
1479365315.8,286046913.9,N,0.0,0.0
1479365335.6,286046914.1,N,0.0,0.0
1479365355.4,286046916.4,N,0.0,0.0
1479365375.3,286046916.2,N,0.0,0.0
1479365395.1,286046915.0,N,0.0,0.0
1479365415.8,286046917.7,N,0.0,0.0
1479365435.7,286046917.7,N,0.0,0.0
1479365455.5,286046917.7,N,0.0,0.0
1479365475.4,286046919.1,N,0.0,0.0
1479365495.2,286046919.0,N,0.0,0.0
1479365515.0,286046918.4,N,0.0,0.0
1479365515.9,286046918.4,N,0.0,0.0
1479365535.8,286046918.3,N,0.0,0.0
1479365555.6,286046921.1,N,0.0,0.0
1479365575.4,286046918.1,N,0.0,0.0
1479365595.3,286046919.8,N,0.0,0.0
1479365615.1,286046919.7,N,0.0,0.0
1479365635.9,286046919.8,N,0.0,0.0
1479365655.7,286046919.7,N,0.0,0.0
1479365675.5,286046922.4,N,0.0,0.0
1479365695.4,286046922.6,N,0.0,0.0
1479365715.2,286046921.3,N,0.0,0.0
1479365735.0,286046921.4,N,0.0,0.0
1479365735.9,286046921.4,N,0.0,0.0
1479365755.8,286046924.0,N,0.0,0.0
1479365775.6,286046923.7,N,0.0,0.0
1479365795.5,286046925.9,N,0.0,0.0
1479365815.3,286046926.0,N,0.0,0.0
1479365835.1,286046925.1,N,0.0,0.0
1479365855.9,286046925.7,N,0.0,0.0
1479365875.7,286046924.6,N,0.0,0.0
1479365895.5,286046924.7,N,0.0,0.0
1479365915.4,286046924.8,N,0.0,0.0
1479365935.2,286046924.7,N,0.0,0.0
1479365955.1,286046927.0,N,0.0,0.0
1479365956.0,286046927.0,N,0.0,0.0
1479365975.8,286046927.2,N,0.0,0.0
1479365995.6,286046927.0,N,0.0,0.0
